Idabel, OK

8:59 PM CST on January 21, 2018 (GMT -0600)
Idabel

Weather History for K4O4 - November, 2012

Change the Weather History Date:

Monday, November 12, 2012

  Actual Average (KPRX) Record (KPRX)
Temperature  
Mean Temperature 46 °F -  
Max Temperature 60 °F 62 °F 78 °F (2005)
Min Temperature 32 °F 44 °F 30 °F (2008)
Degree Days  
Heating Degree Days 19    
Moisture  
Dew Point 25 °F    
Average Humidity 56    
Maximum Humidity 87    
Minimum Humidity 17    
Precipitation  
Precipitation 0.00 in - - ()
Sea Level Pressure  
Sea Level Pressure 30.42 in    
Wind  
Wind Speed 7 mph (North)    
Max Wind Speed 13 mph    
Max Gust Speed 17 mph    
Visibility 10 miles    
Events      
Averages and records for this station are not official NWS values.
T = Trace of Precipitation, MM = Missing Value Source: NWS Daily Summary

Daily Weather History Graph

Daily Weather History Graph

Search for Another Location

Airport or City:

Trip Planner

Search our weather history database for the weather conditions in past years. The results will help you decide how hot, cold, wet, or windy it might be!

Date:

Astronomy

Nov. 12, 2012 Rise Set
Actual Time 6:49 AM CST 5:17 PM CST
Civil Twilight 6:23 AM CST 5:43 PM CST
Nautical Twilight 5:52 AM CST 6:13 PM CST
Astronomical Twilight 5:23 AM CST 6:43 PM CST
Moon 5:18 AM CST (11/12) 4:22 PM CST (11/12)
Length of Visible Light 11h 20m
Length of Day
10h 28m
Waning Crescent, 2% of the Moon is Illuminated
Nov 12
Waning Crescent
Nov 13
New
Nov 20
First Quarter
Nov 28
Full
Dec 6
Last Quarter

Hourly Weather History & Observations

Time (CST) Temp. Windchill Dew Point Humidity Pressure Visibility Wind Dir Wind Speed Gust Speed Precip Events Conditions
12:15 AM 42.8 °F 36.6 °F 35.6 °F 76% 30.23 in 10.0 mi NNW 11.5 mph - N/A   Overcast
12:35 AM 42.8 °F 37.5 °F 35.6 °F 76% 30.25 in 10.0 mi NNW 9.2 mph - N/A   Scattered Clouds
12:55 AM 41.0 °F 33.9 °F 33.8 °F 76% 30.26 in 10.0 mi North 12.7 mph 17.3 mph N/A   Scattered Clouds
1:15 AM 41.0 °F 34.3 °F 33.8 °F 76% 30.27 in 10.0 mi NW 11.5 mph - N/A   Mostly Cloudy
1:35 AM 41.0 °F 35.2 °F 33.8 °F 76% 30.28 in 10.0 mi NW 9.2 mph - N/A   Overcast
1:55 AM 41.0 °F 35.8 °F 32.0 °F 70% 30.28 in 10.0 mi NW 8.1 mph - N/A   Mostly Cloudy
2:15 AM 37.4 °F 31.4 °F 32.0 °F 81% 30.29 in 10.0 mi NW 8.1 mph - N/A   Scattered Clouds
2:35 AM 37.4 °F 30.3 °F 32.0 °F 81% 30.30 in 10.0 mi North 10.4 mph - N/A   Clear
2:55 AM 35.6 °F 28.6 °F 30.2 °F 81% 30.31 in 10.0 mi North 9.2 mph - N/A   Clear
3:41 AM 35.6 °F 29.2 °F 28.4 °F 75% 30.32 in 10.0 mi NNW 8.1 mph - N/A   Clear
3:55 AM 33.8 °F 27.0 °F 28.4 °F 81% 30.32 in 10.0 mi NNW 8.1 mph - N/A   Clear
3:57 AM 35.6 °F 29.2 °F 28.4 °F 75% 30.32 in 10.0 mi NNW 8.1 mph - N/A   Clear
4:15 AM 33.8 °F 27.0 °F 28.4 °F 81% 30.33 in 10.0 mi NNW 8.1 mph - N/A   Clear
4:35 AM 33.8 °F 26.4 °F 28.4 °F 81% 30.34 in 10.0 mi NNW 9.2 mph - N/A   Clear
4:55 AM 33.8 °F 27.0 °F 28.4 °F 81% 30.35 in 10.0 mi NNW 8.1 mph - N/A   Clear
5:15 AM 32.0 °F 24.2 °F 28.4 °F 87% 30.35 in 10.0 mi NNW 9.2 mph - N/A   Clear
5:35 AM 32.0 °F 24.2 °F 28.4 °F 87% 30.36 in 10.0 mi NNW 9.2 mph - N/A   Clear
6:15 AM 32.0 °F 24.8 °F 26.6 °F 80% 30.38 in 10.0 mi NNW 8.1 mph - N/A   Clear
6:35 AM 32.0 °F 24.8 °F 26.6 °F 80% 30.40 in 10.0 mi NNW 8.1 mph - N/A   Clear
6:55 AM 32.0 °F 27.5 °F 26.6 °F 80% 30.41 in 10.0 mi NNW 4.6 mph - N/A   Clear
7:15 AM 32.0 °F 27.5 °F 26.6 °F 80% 30.42 in 10.0 mi NW 4.6 mph - N/A   Clear
7:35 AM 33.8 °F 29.6 °F 28.4 °F 81% 30.44 in 10.0 mi NW 4.6 mph - N/A   Clear
7:55 AM 35.6 °F 31.7 °F 26.6 °F 70% 30.45 in 10.0 mi NW 4.6 mph - N/A   Clear
8:15 AM 37.4 °F 31.4 °F 26.6 °F 65% 30.45 in 10.0 mi NNW 8.1 mph - N/A   Clear
8:55 AM 41.0 °F 37.1 °F 24.8 °F 53% 30.47 in 10.0 mi NNE 5.8 mph - N/A   Clear
9:15 AM 42.8 °F - 24.8 °F 49% 30.48 in 10.0 mi Calm Calm - N/A   Clear
9:35 AM 42.8 °F 40.1 °F 23.0 °F 46% 30.48 in 10.0 mi NNE 4.6 mph - N/A   Clear
9:55 AM 44.6 °F 42.2 °F 24.8 °F 46% 30.48 in 10.0 mi East 4.6 mph - N/A   Clear
10:15 AM 44.6 °F 41.4 °F 24.8 °F 46% 30.48 in 10.0 mi NNE 5.8 mph - N/A   Clear
10:55 AM 48.2 °F - 23.0 °F 37% 30.48 in 10.0 mi North 3.5 mph - N/A   Clear
11:15 AM 50.0 °F - 23.0 °F 35% 30.48 in 10.0 mi NE 4.6 mph - N/A   Clear
11:55 AM 53.6 °F - 24.8 °F 33% 30.47 in 10.0 mi North 3.5 mph - N/A   Clear
12:15 PM 55.4 °F - 21.2 °F 26% 30.46 in 10.0 mi Calm Calm - N/A   Clear
12:55 PM 55.4 °F - 21.2 °F 26% 30.45 in 10.0 mi North 4.6 mph - N/A   Clear
1:15 PM 57.2 °F - 19.4 °F 23% 30.44 in 10.0 mi North 6.9 mph - N/A   Clear
1:35 PM 59.0 °F - 19.4 °F 22% 30.44 in 10.0 mi NNE 8.1 mph - N/A   Clear
1:55 PM 59.0 °F - 19.4 °F 22% 30.44 in 10.0 mi WNW 9.2 mph - N/A   Clear
2:15 PM 59.0 °F - 19.4 °F 22% 30.44 in 10.0 mi Calm Calm - N/A   Clear
2:35 PM 60.8 °F - 17.6 °F 19% 30.43 in 10.0 mi Calm Calm - N/A   Clear
2:55 PM 60.8 °F - 19.4 °F 20% 30.43 in 10.0 mi East 5.8 mph - N/A   Clear
3:15 PM 60.8 °F - 19.4 °F 20% 30.43 in 10.0 mi North 4.6 mph - N/A   Clear
3:55 PM 59.0 °F - 14.0 °F 17% 30.44 in 10.0 mi North 8.1 mph - N/A   Clear
4:15 PM 59.0 °F - 17.6 °F 20% 30.44 in 10.0 mi North 6.9 mph - N/A   Clear
4:35 PM 55.4 °F - 17.6 °F 23% 30.44 in 10.0 mi NNW 8.1 mph - N/A   Clear
4:55 PM 53.6 °F - 19.4 °F 26% 30.45 in 10.0 mi North 8.1 mph - N/A   Clear
5:15 PM 51.8 °F - 19.4 °F 28% 30.45 in 10.0 mi NNW 4.6 mph - N/A   Clear
5:35 PM 50.0 °F - 19.4 °F 30% 30.45 in 10.0 mi North 4.6 mph - N/A   Clear
5:55 PM 46.4 °F 44.3 °F 21.2 °F 37% 30.46 in 10.0 mi NNE 4.6 mph - N/A   Clear
6:15 PM 46.4 °F 44.3 °F 21.2 °F 37% 30.46 in 10.0 mi NNE 4.6 mph - N/A   Clear
6:35 PM 44.6 °F 42.2 °F 21.2 °F 39% 30.47 in 10.0 mi NE 4.6 mph - N/A   Clear
6:55 PM 44.6 °F 42.2 °F 21.2 °F 39% 30.47 in 10.0 mi NNE 4.6 mph - N/A   Clear
7:15 PM 42.8 °F 40.1 °F 23.0 °F 46% 30.48 in 10.0 mi NNE 4.6 mph - N/A   Clear
7:35 PM 42.8 °F 40.1 °F 23.0 °F 46% 30.48 in 10.0 mi NNE 4.6 mph - N/A   Clear
7:55 PM 42.8 °F 41.1 °F 23.0 °F 46% 30.48 in 10.0 mi ENE 3.5 mph - N/A   Clear
8:15 PM 37.4 °F - 24.8 °F 60% 30.48 in 10.0 mi Calm Calm - N/A   Clear
8:35 PM 37.4 °F 34.9 °F 23.0 °F 56% 30.48 in 10.0 mi NNE 3.5 mph - N/A   Clear
8:55 PM 37.4 °F - 26.6 °F 65% 30.48 in 10.0 mi Calm Calm - N/A   Clear
9:15 PM 35.6 °F 32.8 °F 26.6 °F 70% 30.49 in 10.0 mi North 3.5 mph - N/A   Clear
9:35 PM 35.6 °F 32.8 °F 24.8 °F 65% 30.49 in 10.0 mi NNE 3.5 mph - N/A   Clear
9:55 PM 35.6 °F 32.8 °F 24.8 °F 65% 30.50 in 10.0 mi North 3.5 mph - N/A   Clear
10:15 PM 33.8 °F 30.8 °F 24.8 °F 70% 30.50 in 10.0 mi North 3.5 mph - N/A   Clear
10:35 PM 33.8 °F 30.8 °F 26.6 °F 75% 30.50 in 10.0 mi North 3.5 mph - N/A   Clear
10:55 PM 33.8 °F 30.8 °F 26.6 °F 75% 30.50 in 10.0 mi North 3.5 mph - N/A   Clear
11:15 PM 33.8 °F 30.8 °F 26.6 °F 75% 30.50 in 10.0 mi North 3.5 mph - N/A   Clear
11:35 PM 32.0 °F 28.7 °F 26.6 °F 80% 30.50 in 7.0 mi North 3.5 mph - N/A   Clear